timestamp,wind_dir_avg,wind_spd_avg,wind_spd_max_dir,wind_spd_gust,battery_voltage,lat,long
2019-12-08 00:04:01+00:00,335.0,16.52,338.0,19.61,12.41,47.59359,-54.27349
2019-12-08 00:14:01+00:00,325.0,14.53,327.0,17.66,12.41,47.59359,-54.27349
2019-12-08 00:24:01+00:00,321.0,12.1,319.0,13.98,12.41,47.59359,-54.27349
2019-12-08 00:34:01+00:00,316.0,10.16,313.0,11.7,12.41,47.59359,-54.27349
2019-12-08 00:44:01+00:00,313.0,9.63,315.0,10.66,12.41,47.59359,-54.27349
2019-12-08 00:54:01+00:00,312.0,9.69,308.0,10.98,12.41,47.59359,-54.27349
2019-12-08 01:04:01+00:00,309.0,9.7,311.0,11.17,12.41,47.59359,-54.27349
2019-12-08 01:14:01+00:00,302.0,10.41,307.0,11.59,12.41,47.59359,-54.27349
2019-12-08 01:24:01+00:00,306.0,9.82,304.0,10.98,12.41,47.59359,-54.27349
2019-12-08 01:34:01+00:00,301.0,9.86,303.0,11.16,12.41,47.59359,-54.27349
2019-12-08 01:44:01+00:00,304.0,10.14,303.0,11.67,12.41,47.59359,-54.27349
2019-12-08 01:54:01+00:00,295.0,8.79,313.0,10.44,12.41,47.59359,-54.27349
2019-12-08 02:04:01+00:00,281.0,7.9,279.0,9.42,12.41,47.59359,-54.27349
2019-12-08 02:14:01+00:00,290.0,8.75,286.0,9.79,12.41,47.59359,-54.27349
2019-12-08 02:24:01+00:00,290.0,8.46,296.0,9.81,12.41,47.59359,-54.27349
2019-12-08 02:34:01+00:00,291.0,9.73,294.0,11.01,12.41,47.59359,-54.27349
2019-12-08 02:44:01+00:00,286.0,8.68,282.0,11.32,12.41,47.59359,-54.27349
2019-12-08 02:54:01+00:00,296.0,8.76,300.0,11.03,12.41,47.59359,-54.27349
2019-12-08 03:04:01+00:00,300.0,9.17,304.0,10.62,12.41,47.59359,-54.27349
2019-12-08 03:14:01+00:00,291.0,8.64,297.0,11.03,12.33,47.59359,-54.27349
2019-12-08 03:24:01+00:00,290.0,8.46,290.0,9.54,12.33,47.59359,-54.27349
2019-12-08 03:34:01+00:00,292.0,8.62,300.0,10.25,12.33,47.59359,-54.27349
2019-12-08 03:44:01+00:00,299.0,9.79,300.0,11.62,12.33,47.59359,-54.27349
2019-12-08 03:54:01+00:00,295.0,10.03,301.0,11.19,12.33,47.59359,-54.27349
2019-12-08 04:04:01+00:00,284.0,8.68,284.0,9.58,12.33,47.59359,-54.27349
2019-12-08 04:14:01+00:00,302.0,7.93,302.0,9.96,12.33,47.59359,-54.27349
2019-12-08 04:24:01+00:00,300.0,9.62,300.0,11.47,12.33,47.59359,-54.27349
2019-12-08 04:34:01+00:00,291.0,7.69,300.0,8.8,12.33,47.59359,-54.27349
2019-12-08 04:44:01+00:00,303.0,9.09,301.0,11.45,12.33,47.59359,-54.27349
2019-12-08 04:54:01+00:00,302.0,8.09,303.0,9.31,12.33,47.59359,-54.27349
2019-12-08 05:04:01+00:00,311.0,8.5,307.0,10.66,12.33,47.59359,-54.27349
2019-12-08 05:14:01+00:00,292.0,8.2,286.0,9.44,12.33,47.59359,-54.27349
2019-12-08 05:24:01+00:00,290.0,6.61,289.0,7.88,12.33,47.59359,-54.27349
2019-12-08 05:34:01+00:00,290.0,6.77,302.0,8.43,12.33,47.59359,-54.27349
2019-12-08 05:44:01+00:00,311.0,8.97,303.0,10.76,12.33,47.59359,-54.27349
2019-12-08 05:54:01+00:00,299.0,6.9,307.0,8.3,12.33,47.59359,-54.27349
2019-12-08 06:04:01+00:00,302.0,7.27,305.0,8.43,12.33,47.59359,-54.27349
2019-12-08 06:14:01+00:00,297.0,7.1,314.0,8.5,12.33,47.59359,-54.27349
2019-12-08 06:24:01+00:00,290.0,7.97,290.0,9.55,12.33,47.59359,-54.27349
2019-12-08 06:34:01+00:00,285.0,7.67,281.0,9.09,12.33,47.59359,-54.27349
2019-12-08 06:44:01+00:00,288.0,6.05,282.0,6.66,12.33,47.59359,-54.27349
2019-12-08 06:54:01+00:00,314.0,6.57,319.0,8.16,12.33,47.59359,-54.27349
2019-12-08 07:04:01+00:00,288.0,6.48,282.0,7.47,12.33,47.59359,-54.27349
2019-12-08 07:14:01+00:00,291.0,7.33,291.0,8.4,12.33,47.59359,-54.27349
2019-12-08 07:24:01+00:00,295.0,5.99,301.0,7.36,12.33,47.59359,-54.27349
2019-12-08 07:34:01+00:00,307.0,6.89,310.0,8.08,12.33,47.59359,-54.27349
2019-12-08 07:44:01+00:00,297.0,5.57,313.0,6.69,12.33,47.59359,-54.27349
2019-12-08 07:54:01+00:00,305.0,7.63,309.0,9.38,12.33,47.59359,-54.27349
2019-12-08 08:04:01+00:00,284.0,6.76,278.0,8.07,12.33,47.59359,-54.27349
2019-12-08 08:14:01+00:00,285.0,8.41,286.0,10.22,12.33,47.59359,-54.27349
2019-12-08 08:24:01+00:00,284.0,6.93,285.0,7.77,12.33,47.59359,-54.27349
2019-12-08 08:34:01+00:00,292.0,5.87,290.0,7.26,12.33,47.59359,-54.27349
2019-12-08 08:44:01+00:00,291.0,6.45,289.0,7.49,12.33,47.59359,-54.27349
2019-12-08 08:54:01+00:00,305.0,7.11,314.0,8.3,12.33,47.59359,-54.27349
2019-12-08 09:04:01+00:00,286.0,7.23,286.0,8.41,12.33,47.59359,-54.27349
2019-12-08 09:14:01+00:00,297.0,6.31,288.0,7.72,12.33,47.59359,-54.27349
2019-12-08 09:24:01+00:00,294.0,6.57,299.0,8.29,12.33,47.59359,-54.27349
2019-12-08 09:34:01+00:00,293.0,5.94,290.0,7.56,12.33,47.59359,-54.27349
2019-12-08 09:44:01+00:00,287.0,5.84,285.0,6.86,12.33,47.59359,-54.27349
2019-12-08 09:54:01+00:00,310.0,4.97,316.0,6.17,12.33,47.59359,-54.27349
2019-12-08 10:04:01+00:00,284.0,4.89,279.0,6.24,12.33,47.59359,-54.27349
2019-12-08 10:14:01+00:00,282.0,5.9,290.0,6.84,12.25,47.59359,-54.27349
2019-12-08 10:24:01+00:00,277.0,6.18,276.0,7.76,12.25,47.59359,-54.27349
2019-12-08 10:34:01+00:00,288.0,6.7,293.0,7.78,12.25,47.59359,-54.27349
2019-12-08 10:44:01+00:00,290.0,7.0,290.0,8.3,12.25,47.59359,-54.27349
2019-12-08 10:54:01+00:00,281.0,5.11,275.0,6.32,12.25,47.59359,-54.27349
2019-12-08 11:04:01+00:00,286.0,7.63,285.0,9.63,12.25,47.59359,-54.27349
2019-12-08 11:14:01+00:00,274.0,6.21,273.0,7.53,12.25,47.59359,-54.27349
2019-12-08 11:24:01+00:00,276.0,7.91,276.0,9.07,12.25,47.59359,-54.27349
2019-12-08 11:34:01+00:00,277.0,5.48,277.0,7.04,12.25,47.59359,-54.27349
2019-12-08 11:44:01+00:00,273.0,5.16,275.0,6.0,12.25,47.59359,-54.27349
2019-12-08 11:54:01+00:00,271.0,5.8,282.0,8.08,12.25,47.59359,-54.27349
2019-12-08 12:04:01+00:00,286.0,5.16,288.0,6.32,12.25,47.59359,-54.27349
2019-12-08 12:14:01+00:00,281.0,4.99,284.0,5.97,12.41,47.59359,-54.27349
2019-12-08 12:24:01+00:00,285.0,5.8,290.0,6.49,12.41,47.59359,-54.27349
2019-12-08 12:34:01+00:00,285.0,4.97,286.0,5.64,12.41,47.59359,-54.27349
2019-12-08 12:44:01+00:00,274.0,6.49,271.0,7.64,12.41,47.59359,-54.27349
2019-12-08 12:54:01+00:00,273.0,5.92,279.0,6.87,12.41,47.59359,-54.27349
2019-12-08 13:04:01+00:00,267.0,5.48,267.0,7.85,12.41,47.59359,-54.27349
2019-12-08 15:14:01+00:00,280.0,4.34,274.0,5.28,13.68,47.59359,-54.27349
2019-12-08 15:24:01+00:00,286.0,7.72,283.0,9.43,13.68,47.59359,-54.27349
2019-12-08 15:34:01+00:00,292.0,6.79,291.0,7.96,13.68,47.59359,-54.27349
2019-12-08 15:44:01+00:00,276.0,7.33,269.0,8.82,13.68,47.59359,-54.27349
2019-12-08 15:54:01+00:00,288.0,8.91,291.0,10.26,13.68,47.59359,-54.27349
2019-12-08 16:04:01+00:00,279.0,7.82,286.0,9.15,13.68,47.59359,-54.27349
2019-12-08 16:14:01+00:00,290.0,6.62,294.0,7.99,14.24,47.59359,-54.27349
2019-12-08 16:24:01+00:00,279.0,6.62,283.0,7.96,14.24,47.59359,-54.27349
2019-12-08 16:34:01+00:00,283.0,6.89,281.0,8.16,14.24,47.59359,-54.27349
2019-12-08 16:44:01+00:00,289.0,7.62,296.0,9.1,14.24,47.59359,-54.27349
2019-12-08 16:54:01+00:00,299.0,9.39,305.0,10.73,14.24,47.59359,-54.27349
2019-12-08 17:04:01+00:00,287.0,8.99,291.0,10.41,14.24,47.59359,-54.27349
2019-12-08 17:14:01+00:00,293.0,9.37,301.0,10.92,13.53,47.59359,-54.27349
2019-12-08 17:24:01+00:00,293.0,8.96,291.0,11.86,13.53,47.59359,-54.27349
2019-12-08 17:34:01+00:00,290.0,6.62,283.0,8.54,13.53,47.59359,-54.27349
2019-12-08 17:44:01+00:00,287.0,9.63,283.0,12.83,13.53,47.59359,-54.27349
2019-12-08 17:54:01+00:00,293.0,8.22,293.0,9.59,13.53,47.59359,-54.27349
2019-12-08 18:04:01+00:00,294.0,9.06,297.0,10.95,13.53,47.59359,-54.27349
2019-12-08 18:14:01+00:00,282.0,9.25,284.0,10.87,14.32,47.59359,-54.27349
2019-12-08 18:24:01+00:00,303.0,8.33,298.0,9.51,14.32,47.59359,-54.27349
2019-12-08 18:34:01+00:00,312.0,6.6,317.0,8.49,14.32,47.59359,-54.27349
2019-12-08 18:44:01+00:00,305.0,6.71,321.0,8.82,14.32,47.59359,-54.27349
2019-12-08 18:54:01+00:00,305.0,8.64,310.0,10.96,14.32,47.59359,-54.27349
2019-12-08 19:04:01+00:00,300.0,7.5,300.0,8.8,14.32,47.59359,-54.27349
2019-12-08 19:14:01+00:00,304.0,7.13,304.0,7.86,13.53,47.59359,-54.27349
2019-12-08 19:24:01+00:00,300.0,7.76,309.0,9.22,13.53,47.59359,-54.27349
2019-12-08 19:34:01+00:00,287.0,8.07,287.0,9.22,13.53,47.59359,-54.27349
2019-12-08 19:44:01+00:00,296.0,7.58,299.0,8.86,13.53,47.59359,-54.27349
2019-12-08 19:54:01+00:00,312.0,7.74,308.0,9.62,13.53,47.59359,-54.27349
2019-12-08 20:04:01+00:00,310.0,8.74,308.0,10.4,13.53,47.59359,-54.27349
2019-12-08 20:14:01+00:00,314.0,9.41,314.0,11.17,12.81,47.59359,-54.27349
2019-12-08 20:24:01+00:00,305.0,8.01,308.0,9.27,12.81,47.59359,-54.27349
2019-12-08 20:34:01+00:00,317.0,8.91,325.0,10.93,12.81,47.59359,-54.27349
2019-12-08 20:44:01+00:00,306.0,8.14,315.0,10.09,12.81,47.59359,-54.27349
2019-12-08 20:54:01+00:00,308.0,9.26,300.0,10.94,12.81,47.59359,-54.27349
2019-12-08 21:04:01+00:00,306.0,9.8,304.0,12.57,12.81,47.59359,-54.27349
2019-12-08 21:14:01+00:00,304.0,8.34,307.0,10.01,12.65,47.59359,-54.27349
2019-12-08 21:24:01+00:00,314.0,9.95,314.0,11.5,12.65,47.59359,-54.27349
2019-12-08 21:34:01+00:00,312.0,8.34,318.0,9.7,12.65,47.59359,-54.27349
2019-12-08 21:44:01+00:00,307.0,8.76,307.0,10.71,12.65,47.59359,-54.27349
2019-12-08 21:54:01+00:00,307.0,7.29,317.0,8.79,12.65,47.59359,-54.27349
2019-12-08 22:04:01+00:00,305.0,8.23,307.0,9.91,12.65,47.59359,-54.27349
2019-12-08 22:14:01+00:00,291.0,9.03,284.0,10.38,12.65,47.59359,-54.27349
2019-12-08 22:24:01+00:00,291.0,7.2,287.0,8.17,12.65,47.59359,-54.27349
2019-12-08 22:34:01+00:00,295.0,7.23,298.0,8.27,12.65,47.59359,-54.27349
2019-12-08 22:44:01+00:00,299.0,7.1,302.0,8.48,12.65,47.59359,-54.27349
2019-12-08 22:54:01+00:00,305.0,5.14,298.0,6.1,12.65,47.59359,-54.27349
2019-12-08 23:04:01+00:00,312.0,7.12,302.0,8.33,12.65,47.59359,-54.27349
2019-12-08 23:14:01+00:00,312.0,6.51,321.0,8.23,12.65,47.59359,-54.27349
2019-12-08 23:24:01+00:00,310.0,7.45,314.0,8.87,12.65,47.59359,-54.27349
2019-12-08 23:34:01+00:00,316.0,7.48,321.0,9.0,12.65,47.59359,-54.27349
2019-12-08 23:44:01+00:00,304.0,7.57,296.0,10.21,12.65,47.59359,-54.27349
2019-12-08 23:54:01+00:00,306.0,8.78,302.0,11.01,12.65,47.59359,-54.27349
